Tracking 28052 objects as of 23-Sep-2023
HD Live streaming from Space Station
objects crossing your sky now

STARLINK-3203

Track STARLINK-3203 now!
10-day predictions
STARLINK-3203 is classified as:


NORAD ID: 49761
Int'l Code: 2021-115AP
Perigee: 545.9 km
Apogee: 547.8 km
Inclination: 53.2 °
Period: 95.4 minutes
Semi major axis: 6917 km
RCS: Unknown
Launch date: December 2, 2021
Source: United States (US)
Launch site: AIR FORCE EASTERN TEST RANGE (AFETR)
Your satellite tracking list
Your tracking list is empty




NASA's NSSDC Master Catalog

Two Line Element Set (TLE):
1 49761U 21115AP  23265.28307541  .00004287  00000-0  28723-3 0  9991
2 49761  53.2149 216.7140 0001330  99.9693 260.1449 15.08846114 99895
Source of the keplerian elements: AFSPC